Plattsburgh, NY

1:31 PM EDT on June 26, 2017 (GMT -0400)
Plattsburgh International

Weather History for KPBG - September, 2013

Change the Weather History Date:

Monday, September 30, 2013

  Actual Average Record
Temperature  
Mean Temperature 57 °F 53 °F  
Max Temperature 71 °F 64 °F 80 °F (1959)
Min Temperature 42 °F 43 °F 29 °F (1991)
Degree Days  
Heating Degree Days 8 12  
Month to date heating degree days 236 194  
Since 1 July heating degree days 281 235  
Cooling Degree Days 0 0  
Month to date cooling degree days 40 23  
Year to date cooling degree days 423 345  
Growing Degree Days 6 (Base 50)    
Moisture  
Dew Point 48 °F    
Average Humidity 71    
Maximum Humidity 100    
Minimum Humidity 41    
Precipitation  
Precipitation 0.00 in - 1.42 in (2010)
Month to date precipitation 2.91  
Year to date precipitation 26.83  
Sea Level Pressure  
Sea Level Pressure 30.03 in    
Wind  
Wind Speed 2 mph (SE)    
Max Wind Speed 9 mph    
Max Gust Speed 15 mph    
Visibility 9 miles    
Events      
T = Trace of Precipitation, MM = Missing Value Source: NWS Daily Summary

Daily Weather History Graph

Daily Weather History Graph

Search for Another Location

Airport or City:

Trip Planner

Search our weather history database for the weather conditions in past years. The results will help you decide how hot, cold, wet, or windy it might be!

Date:

Astronomy

Sep. 30, 2013 Rise Set
Actual Time 6:50 AM EDT 6:35 PM EDT
Civil Twilight 6:21 AM EDT 7:04 PM EDT
Nautical Twilight 5:47 AM EDT 7:38 PM EDT
Astronomical Twilight 5:13 AM EDT 8:13 PM EDT
Moon 2:15 AM EDT (9/30) 4:13 PM EDT (9/30)
Length of Visible Light 12h 43m
Length of Day
11h 45m
Waning Crescent, 19% of the Moon is Illuminated
Sep 30
Waning Crescent
Oct 4
New
Oct 11
First Quarter
Oct 18
Full
Oct 26
Last Quarter

Hourly Weather History & Observations

Time (EDT) Temp. Dew Point Humidity Pressure Visibility Wind Dir Wind Speed Gust Speed Precip Events Conditions
12:53 AM 46.9 °F 46.9 °F 100% 30.06 in 10.0 mi Calm Calm - N/A   Clear
1:53 AM 46.0 °F 46.0 °F 100% 30.06 in 10.0 mi Calm Calm - N/A   Clear
2:53 AM 46.9 °F 46.0 °F 97% 30.05 in 10.0 mi Calm Calm - N/A   Clear
3:15 AM 44.6 °F 44.6 °F 100% 30.04 in 2.0 mi Calm Calm - N/A   Clear
3:23 AM 46.4 °F 44.6 °F 93% 30.04 in 9.0 mi Calm Calm - N/A   Clear
3:46 AM 44.6 °F 44.6 °F 100% 30.05 in 2.5 mi Calm Calm - N/A   Clear
3:53 AM 46.0 °F 46.0 °F 100% 30.05 in 10.0 mi Calm Calm - N/A   Clear
4:53 AM 45.0 °F 44.1 °F 97% 30.06 in 10.0 mi Calm Calm - N/A   Clear
5:22 AM 44.6 °F 42.8 °F 93% 30.05 in 1.5 mi Calm Calm - N/A   Clear
5:33 AM 44.6 °F 44.6 °F 100% 30.05 in 3.0 mi Calm Calm - N/A   Clear
5:53 AM 44.1 °F 43.0 °F 96% 30.06 in 10.0 mi Calm Calm - N/A   Clear
6:53 AM 42.1 °F 42.1 °F 100% 30.07 in 9.0 mi Calm Calm - N/A   Clear
7:53 AM 46.0 °F 45.0 °F 96% 30.08 in 10.0 mi Calm Calm - N/A   Clear
8:53 AM 54.0 °F 48.9 °F 83% 30.08 in 10.0 mi Calm Calm - N/A   Clear
9:53 AM 59.0 °F 51.1 °F 75% 30.07 in 10.0 mi SSE 3.5 mph - N/A   Clear
10:53 AM 63.0 °F 53.1 °F 70% 30.06 in 10.0 mi SE 6.9 mph - N/A   Clear
11:53 AM 64.0 °F 54.0 °F 70% 30.04 in 10.0 mi SE 6.9 mph - N/A   Clear
12:53 PM 66.0 °F 55.0 °F 68% 30.03 in 10.0 mi SE 5.8 mph - N/A   Clear
1:53 PM 69.1 °F 54.0 °F 58% 30.00 in 10.0 mi ESE 4.6 mph - N/A   Clear
2:53 PM 71.1 °F 46.9 °F 42% 29.99 in 10.0 mi ESE 5.8 mph - N/A   Clear
3:53 PM 71.1 °F 48.0 °F 44% 29.98 in 10.0 mi SE 6.9 mph - N/A   Clear
4:53 PM 70.0 °F 48.0 °F 46% 29.98 in 10.0 mi SE 4.6 mph - N/A   Clear
5:53 PM 64.0 °F 52.0 °F 65% 29.97 in 10.0 mi Calm Calm - N/A   Clear
6:53 PM 57.9 °F 53.1 °F 84% 29.97 in 10.0 mi Calm Calm - N/A   Clear
7:53 PM 55.0 °F 52.0 °F 89% 29.98 in 10.0 mi Calm Calm - N/A   Clear
8:53 PM 52.0 °F 51.1 °F 97% 29.99 in 10.0 mi Calm Calm - N/A   Clear
9:53 PM 50.0 °F 50.0 °F 100% 29.99 in 10.0 mi Calm Calm - N/A   Clear
10:53 PM 50.0 °F 48.9 °F 96% 29.98 in 10.0 mi Calm Calm - N/A   Clear
11:53 PM 48.0 °F 46.9 °F 96% 29.97 in 10.0 mi Calm Calm - N/A   Clear